{"data":{"norad_id":58997,"epoch":"2026-05-25T03:41:47.619168Z","epoch_age_seconds":68535,"freshness":"FRESH","line1":"1 58997U 23174DJ  26145.15402337  .00002851  00000+0  34355-3 0  9996","line2":"2 58997  97.6254 194.8053 0007480  48.5150 311.6706 14.84582478137731","mean_motion":14.84582478,"eccentricity":0.000748,"inclination_deg":97.6254,"raan_deg":194.8053,"arg_perigee_deg":48.515,"mean_anomaly_deg":311.6706,"bstar":0.00034355,"rev_number":13773,"period_min":96.996968598197,"perigee_km":609.66590910127,"apogee_km":620.12748751394,"semimajor_km":6993.0336983076,"source":"CELESTRAK","updated_at":"2026-05-25T13:38:01.120067Z"}}